Home   Weather   41°44'N, 93°33'W   Past weeks
Flag for USA

Past Weather in 41°44'N, 93°33'W, USA — Yesterday and Last 2 Weeks

Now
78 °F

Passing clouds.


Feels Like: 79 °F
Forecast: 77 / 62 °F
Wind: 18 mph from West

Location: Des Moines International Airport

Current Time: Jun 24, 2019 at 6:43:47 pm

Latest Report: Jun 24, 2019 at 5:54 pm


Visibility: 10 mi

Pressure: 29.70 "Hg

Humidity: 43%

Dew Point: 54 °F

Location of 41°44'N, 93°33'WLocation

Past Weather in 41°44'N, 93°33'W — Graph

°F

41°44'N, 93°33'W Temperature Yesterday

Maximum temperature yesterday: 73 °F (at 5:54 pm)
Minimum temperature yesterday: 66 °F (at 4:54 am)
Average temperature yesterday: 69 °F

High & Low Weather Summary for the Past Weeks

 TemperatureHumidityPressure
High88 °F (Jun 15, 3:54 pm)100% (Jun 20, 3:54 am)30.28 "Hg (Jun 20, 3:54 am)
Low48 °F (Jun 13, 5:54 am)21% (Jun 10, 4:54 pm)29.60 "Hg (Jun 15, 3:54 pm)
Average68 °F72%29.87 "Hg
* Reported Jun 9 4:54 pm — Jun 24 4:54 pm, 41°44'N, 93°33'W. Weather by CustomWeather, © 2019

Note: Actual official high and low records may vary slightly from our data, if they occured in-between our weather recording intervals... More about our weather records

Advertising

41°44'N, 93°33'W Weather History for the Previous 24 Hours

Scroll right to see more
 ConditionsComfort  
Time TempWeatherWind HumidityBarometerVisibility
4:54 pm
Mon, Jun 24
78 °FScattered clouds.16 mph42%29.71 "Hg10 mi
3:54 pm77 °FScattered clouds.16 mph47%29.70 "Hg10 mi
2:54 pm76 °FScattered clouds.16 mph47%29.71 "Hg10 mi
1:54 pm75 °FBroken clouds.14 mph50%29.71 "Hg10 mi
12:54 pm73 °FBroken clouds.14 mph53%29.71 "Hg10 mi
11:54 am70 °FBroken clouds.14 mph64%29.72 "Hg10 mi
10:54 am67 °FPartly sunny.16 mph73%29.71 "Hg10 mi
9:54 am65 °FPartly sunny.13 mph76%29.70 "Hg10 mi
8:54 am63 °FDrizzle. Cloudy.10 mph87%29.69 "Hg10 mi
7:54 am62 °FDrizzle. Overcast.14 mph86%29.68 "Hg10 mi
7:33 am62 °FOvercast.8 mph86%29.70 "Hg10 mi
6:54 am62 °FOvercast.12 mph86%29.67 "Hg10 mi
5:54 am62 °FMore clouds than sun.13 mph90%29.67 "Hg10 mi
4:54 am64 °FDrizzle. Mostly cloudy.12 mph94%29.64 "Hg9 mi
4:23 am65 °FDrizzle. Mostly cloudy.10 mph94%29.65 "Hg9 mi
3:54 am66 °FMostly cloudy.13 mph93%29.62 "Hg10 mi
2:54 am66 °FMostly cloudy.10 mph90%29.63 "Hg10 mi
2:24 am66 °FOvercast.10 mph90%29.65 "Hg10 mi
1:54 am66 °FPartly cloudy.8 mph90%29.62 "Hg10 mi
12:54 am66 °FPassing clouds.7 mph93%29.65 "Hg10 mi
11:54 pm
Sun, Jun 23
67 °FPassing clouds.5 mph87%29.64 "Hg10 mi
10:54 pm68 °FMostly cloudy.7 mph87%29.67 "Hg10 mi
9:54 pm68 °FPartly cloudy.3 mph87%29.67 "Hg10 mi
8:54 pm70 °FOvercast.7 mph84%29.68 "Hg10 mi
7:54 pm71 °FCloudy.6 mph81%29.66 "Hg10 mi
6:54 pm72 °FMostly cloudy.7 mph78%29.66 "Hg10 mi
Weather by CustomWeather, © 2019

See weather overview